"Pseudo-MPEC" for ST25A01

Created 2025 Jan 22 23:31:17 UT using Find_Orb

Click here for an explanation of pseudo-MPECs

 
 Astrometry: 
     ST25A01* C2025 01 05.29894004 26 54.030+02 48 01.39   ~19MH 18.7 GVNEOCPU68
     ST25A01  C2025 01 05.30274004 26 54.341+02 47 55.06   ~19MH 18.7 GVNEOCPU68
     ST25A01  C2025 01 05.31917704 26 55.591+02 47 32.91   ~19MH 19.0 GVNEOCPU68
     ST25A01  C2025 01 05.32295704 26 55.822+02 47 24.82   ~19MH 19.0 GVNEOCPU68

Station data:
(U68) JPL SynTrack Robotic Telescope, Auberry  (N37.070387 W119.412990)
   US/California.  Observers N. Saini, C. Zhai, R. Trahan, M. Zhan, M. Shao.
   0.28-m f/2.2 Schmidt + CCD.

Orbital elements:  ST25A01
   Perihelion 2025 Jan 30.85104 +/- 43.2 TT = 20:25:30 (JD 2460706.35104)
Epoch 2025 Jan  5.0 TT = JDT 2460680.5   Earth MOID: 0.1849   Ju: 0.9861
M 354.25919721 +/- 40               Ma: 0.0080                   AutoNEOCP
n   0.22207239 +/- 0.276            Peri.  244.08880 +/- 120
a   2.70067916 +/- 2.24             Node   238.96711 +/- 36
e   0.5785815 +/- 0.187             Incl.    6.28097 +/- 8
P   4.43823                H 20.33  G  0.15   U 11.9  SR
q 1.13811608 +/- 0.312    Q 4.26324223 +/- 1.81           (J2000 ecliptic)
From 4 observations 2025 Jan. 5 (34.6 min); mean residual 0".71
Residuals in arcseconds: 
250105 U68  .22-  .23+    250105 U68  .41+  1.4+    
250105 U68  .18+  .53-    250105 U68  .41-  1.1-    

Ephemerides (geocentric):
Date (UTC) HH   RA             Dec           delta  r     elong  mag " sig PA
---- --------  ------------   ------------  ------ ------ -----  --- --------
2025 01 23 00  05 05 48.049   -03 17 26.65  .23631 1.1422 127.0 19.2  33d  85
2025 01 23 01  05 05 55.476   -03 18 07.11  .23629 1.1421 127.0 19.2  34d  85
2025 01 23 02  05 06 02.912   -03 18 47.50  .23628 1.1421 127.0 19.2  34d  85
2025 01 23 03  05 06 10.357   -03 19 27.84  .23627 1.1421 127.0 19.2  34d  85
2025 01 23 04  05 06 17.811   -03 20 08.11  .23625 1.1420 126.9 19.2  34d  85
2025 01 23 05  05 06 25.274   -03 20 48.33  .23624 1.1420 126.9 19.2  34d  85
2025 01 23 06  05 06 32.745   -03 21 28.48  .23623 1.1419 126.9 19.2  34d  85
2025 01 23 07  05 06 40.226   -03 22 08.57  .23622 1.1419 126.9 19.2  34d  85
2025 01 23 08  05 06 47.715   -03 22 48.60  .23620 1.1418 126.9 19.2  34d  85
2025 01 23 09  05 06 55.212   -03 23 28.56  .23619 1.1418 126.9 19.2  34d  85
2025 01 23 10  05 07 02.719   -03 24 08.47  .23618 1.1418 126.9 19.2  34d  85
2025 01 23 11  05 07 10.234   -03 24 48.31  .23617 1.1417 126.9 19.2  34d  85
2025 01 23 12  05 07 17.758   -03 25 28.09  .23615 1.1417 126.8 19.2  34d  85
2025 01 23 13  05 07 25.291   -03 26 07.81  .23614 1.1416 126.8 19.2  34d  85
2025 01 23 14  05 07 32.833   -03 26 47.47  .23613 1.1416 126.8 19.2  34d  85
2025 01 23 15  05 07 40.383   -03 27 27.06  .23612 1.1416 126.8 19.2  34d  85
2025 01 23 16  05 07 47.942   -03 28 06.60  .23611 1.1415 126.8 19.2  34d  85
2025 01 23 17  05 07 55.510   -03 28 46.07  .23610 1.1415 126.8 19.2  34d  85
2025 01 23 18  05 08 03.086   -03 29 25.48  .23608 1.1414 126.8 19.2  34d  85
2025 01 23 19  05 08 10.672   -03 30 04.82  .23607 1.1414 126.8 19.2  34d  85
2025 01 23 20  05 08 18.266   -03 30 44.11  .23606 1.1414 126.7 19.2  34d  85
2025 01 23 21  05 08 25.869   -03 31 23.33  .23605 1.1413 126.7 19.2  34d  85
2025 01 23 22  05 08 33.480   -03 32 02.49  .23604 1.1413 126.7 19.2  34d  85
2025 01 23 23  05 08 41.100   -03 32 41.59  .23603 1.1412 126.7 19.2  34d  85
2025 01 24 00  05 08 48.729   -03 33 20.62  .23602 1.1412 126.7 19.2  35d  85
2025 01 24 01  05 08 56.367   -03 33 59.59  .23601 1.1412 126.7 19.2  35d  85
2025 01 24 02  05 09 04.013   -03 34 38.50  .23600 1.1411 126.7 19.2  35d  85
2025 01 24 03  05 09 11.668   -03 35 17.35  .23599 1.1411 126.7 19.2  35d  85
2025 01 24 04  05 09 19.332   -03 35 56.13  .23598 1.1411 126.6 19.2  35d  85
2025 01 24 05  05 09 27.004   -03 36 34.85  .23597 1.1410 126.6 19.2  35d  85
2025 01 24 06  05 09 34.685   -03 37 13.51  .23596 1.1410 126.6 19.2  35d  86
2025 01 24 07  05 09 42.375   -03 37 52.11  .23595 1.1410 126.6 19.2  35d  86
2025 01 24 08  05 09 50.074   -03 38 30.64  .23594 1.1409 126.6 19.2  35d  86
2025 01 24 09  05 09 57.781   -03 39 09.11  .23593 1.1409 126.6 19.2  35d  86
2025 01 24 10  05 10 05.497   -03 39 47.52  .23592 1.1408 126.6 19.2  35d  86
2025 01 24 11  05 10 13.221   -03 40 25.86  .23591 1.1408 126.6 19.2  35d  86
2025 01 24 12  05 10 20.954   -03 41 04.14  .23590 1.1408 126.5 19.2  35d  86
2025 01 24 13  05 10 28.696   -03 41 42.36  .23589 1.1407 126.5 19.2  35d  86
2025 01 24 14  05 10 36.446   -03 42 20.52  .23588 1.1407 126.5 19.2  35d  86
2025 01 24 15  05 10 44.205   -03 42 58.61  .23587 1.1407 126.5 19.2  35d  86
2025 01 24 16  05 10 51.973   -03 43 36.63  .23586 1.1406 126.5 19.2  35d  86
2025 01 24 17  05 10 59.750   -03 44 14.60  .23586 1.1406 126.5 19.2  35d  86
2025 01 24 18  05 11 07.535   -03 44 52.50  .23585 1.1406 126.5 19.2  35d  86
2025 01 24 19  05 11 15.328   -03 45 30.34  .23584 1.1405 126.5 19.2  35d  86
2025 01 24 20  05 11 23.130   -03 46 08.11  .23583 1.1405 126.5 19.2  35d  86
2025 01 24 21  05 11 30.941   -03 46 45.82  .23582 1.1405 126.4 19.2  35d  86
2025 01 24 22  05 11 38.761   -03 47 23.47  .23581 1.1404 126.4 19.2  35d  86
2025 01 24 23  05 11 46.589   -03 48 01.05  .23581 1.1404 126.4 19.2  35d  86